GEESAT 3-01

导读

**GEESAT 3-01卫星**是中国于北京时间2024年9月5日08:00发射的一颗国产卫星。作为GEESAT 3系列的首发星,该卫星主要服务于商业遥感领域,可提供高分辨率对地观测数据,广泛应用于国土资源勘查、环境监测、城市规划等多个领域,将进一步提升我国商业航天的遥感服务能力,推动空间信息应用产业发展。

Basic Information
目录编号:
61011
目录名称:
GEESAT 3-01
国际标识:
2024-159A
轨道中心:
EARTH
卫星名称:
GEESAT 3-01
卫星全名:
GEESAT 3-01
卫星状态:
在轨 (已飞行691 天)
发射日期:
2024-09-05 UTC
国别 :
中国 (CN)
星等 :
--
Orbit Information
数据来源 国际轨道数据 AOE轨道数据
星历时间 2026-07-28T12:58:55+0800
9小时前
查看轨道信息
2026-07-28T16:00:00+0800
6小时前
查看轨道信息
半长轴 6993.669km 6993.67km
偏心率 0.0002419 0.0002379
轨道倾角 49.999° 49.999°
近地点辐角 34.006° 30.078°
升交点赤经 252.803° 252.220°
平近点角 326.103° 282.484°
近地点 613.84km 613.869km
远地点 617.224km 617.197km
周期 97.010分钟 97.010分钟
每日圈数 14.843805 14.8438
Detailed Information
使用方式:
暂无
2D Orbit Map
3D Orbit Map
Orbit Altitude Analysis Chart
Orbit Inclination Analysis Chart
Orbit Comprehensive Analysis Chart
View Comprehensive Chart